Location: Christianberg
(48.9086°N, 14.0209°E)
Time: 21:31:04
(UTC+00:00)

MINOTAUR 4 R/B - Pass Details

Date: 20 June 2021
Orbit: 475 x 481 km, 98.0° (Epoch: 04 August)

Event Time Altitude Azimuth Distance (km) Brightness Sun altitude
Exits shadow 01:26:39 13° 180° (S) 1,485 6.0 -11.1°
Maximum altitude 01:29:45 57° 258° (WSW) 566 4.1 -10.8°
Drops below altitude 10° 01:33:16 10° 339° (NNW) 1,656 7.3 -10.5°
Sets 01:35:21 0° 343° (NNW) 2,540 8.3 -10.3°
